TimeEDT,TemperatureF,Dew PointF,Humidity,Sea Level PressureIn,VisibilityMPH,Wind Direction,Wind SpeedMPH,Gust SpeedMPH,PrecipitationIn,Events,Conditions,WindDirDegrees,DateUTC
12:53 AM,70.0,68.0,93,30.07,4.0,WSW,3.5,-,N/A,,Mostly Cloudy,240,2013-06-24 04:53:00
1:04 AM,69.8,68.0,94,30.09,4.0,Calm,Calm,-,N/A,,Mostly Cloudy,0,2013-06-24 05:04:00
1:38 AM,69.8,66.2,88,30.09,1.8,Calm,Calm,-,N/A,,Scattered Clouds,0,2013-06-24 05:38:00
1:46 AM,69.8,66.2,88,30.09,1.5,Calm,Calm,-,N/A,,Mostly Cloudy,0,2013-06-24 05:46:00
1:53 AM,69.1,66.9,93,30.07,1.8,SW,3.5,-,N/A,,Mostly Cloudy,220,2013-06-24 05:53:00
1:57 AM,69.8,66.2,88,30.09,3.0,SSW,4.6,-,N/A,,Overcast,210,2013-06-24 05:57:00
2:06 AM,69.8,66.2,88,30.09,4.0,Calm,Calm,-,N/A,,Overcast,0,2013-06-24 06:06:00
2:24 AM,68.0,66.2,94,30.08,2.5,Calm,Calm,-,N/A,,Scattered Clouds,0,2013-06-24 06:24:00
2:31 AM,69.8,66.2,88,30.08,3.0,Calm,Calm,-,N/A,,Partly Cloudy,0,2013-06-24 06:31:00
2:38 AM,69.8,66.2,88,30.08,2.5,Calm,Calm,-,N/A,,Clear,0,2013-06-24 06:38:00
2:53 AM,69.1,66.9,93,30.05,4.0,Calm,Calm,-,N/A,,Clear,0,2013-06-24 06:53:00
3:02 AM,68.0,66.2,94,30.07,1.8,Calm,Calm,-,N/A,,Clear,0,2013-06-24 07:02:00
3:11 AM,66.2,64.4,94,30.07,0.5,North,3.5,-,N/A,Fog,Fog,10,2013-06-24 07:11:00
3:22 AM,68.0,66.2,94,30.07,1.2,Calm,Calm,-,N/A,,Partly Cloudy,0,2013-06-24 07:22:00
3:28 AM,68.0,66.2,94,30.07,3.0,Calm,Calm,-,N/A,,Partly Cloudy,0,2013-06-24 07:28:00
3:40 AM,68.0,66.2,94,30.07,1.5,NNW,3.5,-,N/A,,Partly Cloudy,340,2013-06-24 07:40:00
3:43 AM,66.2,64.4,94,30.07,0.8,Calm,Calm,-,N/A,,Mist,0,2013-06-24 07:43:00
3:53 AM,66.9,64.9,93,30.05,0.5,Calm,Calm,-,N/A,Fog,Fog,0,2013-06-24 07:53:00
3:57 AM,66.2,66.2,100,30.07,0.2,Calm,Calm,-,N/A,Fog,Fog,0,2013-06-24 07:57:00
4:53 AM,66.9,66.0,97,30.05,0.2,SW,3.5,-,N/A,Fog,Fog,230,2013-06-24 08:53:00
5:53 AM,66.9,64.9,93,30.07,0.1,Calm,Calm,-,0.01,Fog,Fog,0,2013-06-24 09:53:00
6:53 AM,66.9,66.0,97,30.08,0.2,Calm,Calm,-,N/A,Fog,Fog,0,2013-06-24 10:53:00
7:28 AM,68.0,66.2,94,30.09,0.2,Calm,Calm,-,N/A,Fog,Fog,0,2013-06-24 11:28:00
7:45 AM,69.8,66.2,88,30.09,0.8,Calm,Calm,-,N/A,,Mist,0,2013-06-24 11:45:00
7:53 AM,69.1,66.9,93,30.08,0.8,Calm,Calm,-,N/A,,Overcast,0,2013-06-24 11:53:00
8:00 AM,69.8,66.2,88,30.09,1.0,Calm,Calm,-,N/A,,Mostly Cloudy,0,2013-06-24 12:00:00
8:11 AM,69.8,66.2,88,30.09,3.0,Calm,Calm,-,N/A,,Partly Cloudy,0,2013-06-24 12:11:00
8:53 AM,73.9,69.1,85,30.07,10.0,SSW,4.6,-,N/A,,Partly Cloudy,200,2013-06-24 12:53:00
9:53 AM,81.0,68.0,65,30.06,10.0,WSW,6.9,-,N/A,,Clear,250,2013-06-24 13:53:00
10:53 AM,84.0,68.0,58,30.05,10.0,WSW,8.1,-,N/A,,Clear,240,2013-06-24 14:53:00
11:53 AM,87.1,68.0,53,30.05,10.0,Variable,6.9,-,N/A,,Clear,0,2013-06-24 15:53:00
12:53 PM,88.0,66.9,49,30.04,10.0,SSW,9.2,-,N/A,,Clear,210,2013-06-24 16:53:00
1:30 PM,89.6,64.4,43,30.04,10.0,WSW,9.2,19.6,N/A,Thunderstorm,Thunderstorm,240,2013-06-24 17:30:00
1:53 PM,80.1,61.0,52,30.03,10.0,NNW,9.2,-,N/A,Thunderstorm,Thunderstorm,330,2013-06-24 17:53:00
2:38 PM,75.2,62.6,65,30.02,10.0,Variable,4.6,-,0.00,Thunderstorm,Partly Cloudy,0,2013-06-24 18:38:00
2:53 PM,75.9,64.0,67,30.01,10.0,East,4.6,-,0.00,Thunderstorm,Clear,90,2013-06-24 18:53:00
3:47 PM,75.2,60.8,61,30.05,1.0,WSW,27.6,50.6,0.01,Rain-Thunderstorm,Light Thunderstorms and Rain,240,2013-06-24 19:47:00
3:49 PM,71.6,60.8,69,30.04,0.8,SW,34.5,50.6,0.04,Rain-Thunderstorm,Heavy Thunderstorms and Rain,230,2013-06-24 19:49:00
3:53 PM,68.0,62.1,81,30.03,0.5,SSW,31.1,50.6,0.09,Rain-Thunderstorm,Heavy Thunderstorms and Rain,200,2013-06-24 19:53:00
4:03 PM,66.2,60.8,83,30.03,10.0,SSE,15.0,38.0,0.14,Rain-Thunderstorm,Heavy Thunderstorms and Rain,150,2013-06-24 20:03:00
4:48 PM,69.8,62.6,78,30.01,10.0,Calm,Calm,-,0.40,,Partly Cloudy,0,2013-06-24 20:48:00
4:53 PM,70.0,63.0,78,30.00,10.0,SSE,3.5,-,0.40,,Scattered Clouds,150,2013-06-24 20:53:00
5:53 PM,73.9,63.0,68,29.98,10.0,WSW,3.5,-,N/A,,Clear,250,2013-06-24 21:53:00
6:53 PM,73.9,64.9,73,29.99,10.0,Calm,Calm,-,N/A,,Partly Cloudy,0,2013-06-24 22:53:00
7:17 PM,73.4,66.2,78,30.01,6.0,Variable,4.6,-,0.04,Rain-Thunderstorm,Light Thunderstorms and Rain,0,2013-06-24 23:17:00
7:53 PM,73.9,68.0,82,29.98,8.0,Variable,4.6,-,0.07,Rain,Light Rain,0,2013-06-24 23:53:00
8:53 PM,69.1,66.9,93,29.98,4.0,Calm,Calm,-,0.00,,Clear,0,2013-06-25 00:53:00
9:53 PM,66.9,64.9,93,30.01,3.0,Calm,Calm,-,N/A,,Partly Cloudy,0,2013-06-25 01:53:00
10:53 PM,66.9,64.9,93,30.01,3.0,Calm,Calm,-,N/A,,Scattered Clouds,0,2013-06-25 02:53:00
10:57 PM,66.2,64.4,94,30.02,0.8,Calm,Calm,-,N/A,,Scattered Clouds,0,2013-06-25 02:57:00
11:08 PM,66.2,64.4,94,30.02,0.5,Calm,Calm,-,N/A,Fog,Fog,0,2013-06-25 03:08:00
11:20 PM,66.2,64.4,94,30.02,0.2,Calm,Calm,-,N/A,Fog,Fog,0,2013-06-25 03:20:00
11:31 PM,66.2,64.4,94,30.02,0.5,Calm,Calm,-,N/A,Fog,Fog,0,2013-06-25 03:31:00
11:33 PM,64.4,64.4,100,30.03,0.2,Calm,Calm,-,N/A,Fog,Fog,0,2013-06-25 03:33:00
11:40 PM,64.4,62.6,94,30.02,0.2,Calm,Calm,-,N/A,Fog,Fog,0,2013-06-25 03:40:00
11:53 PM,64.9,64.0,97,30.00,0.5,Calm,Calm,-,N/A,Fog,Fog,0,2013-06-25 03:53:00